Time,TemperatureF,DewpointF,PressureIn,WindDirection,WindDirectionDegrees,WindSpeedMPH,WindSpeedGustMPH,Humidity,HourlyPrecipIn,Conditions,Clouds,dailyrainin,SoftwareType,DateUTC
2013-04-25 00:00:00,50.0,46.0,-100.00,SW,231,2.0,-999.0,87,0.00,,,-99.99,,2013-04-25 07:00:00,
2013-04-25 00:22:00,50.0,46.0,-100.00,SW,231,2.0,-999.0,87,0.00,,,-99.99,,2013-04-25 07:22:00,
2013-04-25 00:32:00,50.0,46.0,-100.00,SW,231,2.0,-999.0,87,0.00,,,-99.99,,2013-04-25 07:32:00,
2013-04-25 00:42:00,50.0,46.0,-100.00,SW,231,2.0,-999.0,87,0.00,,,-99.99,,2013-04-25 07:42:00,
2013-04-25 00:52:00,50.0,46.0,-100.00,SW,231,2.0,-999.0,87,0.00,,,-99.99,,2013-04-25 07:52:00,
2013-04-25 01:00:00,50.0,46.0,-100.00,NNW,333,3.0,-999.0,87,0.00,,,-99.99,,2013-04-25 08:00:00,
2013-04-25 01:22:00,50.0,46.0,-100.00,NNW,333,3.0,-999.0,87,0.00,,,-99.99,,2013-04-25 08:22:00,
2013-04-25 01:32:00,50.0,46.0,-100.00,NNW,333,3.0,-999.0,87,0.00,,,-99.99,,2013-04-25 08:32:00,
2013-04-25 01:42:00,50.0,46.0,-100.00,NNW,333,3.0,-999.0,87,0.00,,,-99.99,,2013-04-25 08:42:00,
2013-04-25 01:52:00,50.0,46.0,-100.00,NNW,333,3.0,-999.0,87,0.00,,,-99.99,,2013-04-25 08:52:00,
2013-04-25 02:00:00,50.0,46.0,-100.00,North,352,4.0,-999.0,87,0.00,,,-99.99,,2013-04-25 09:00:00,
2013-04-25 02:21:00,50.0,46.0,-100.00,North,352,4.0,-999.0,87,0.00,,,-99.99,,2013-04-25 09:21:00,
2013-04-25 02:33:00,50.0,46.0,-100.00,North,352,4.0,-999.0,87,0.00,,,-99.99,,2013-04-25 09:33:00,
2013-04-25 02:42:00,50.0,46.0,-100.00,North,352,4.0,-999.0,87,0.00,,,-99.99,,2013-04-25 09:42:00,
2013-04-25 02:52:00,50.0,46.0,-100.00,North,352,4.0,-999.0,87,0.00,,,-99.99,,2013-04-25 09:52:00,
2013-04-25 03:00:00,50.0,47.0,-100.00,WNW,294,5.0,-999.0,87,0.00,,,-99.99,,2013-04-25 10:00:00,
2013-04-25 03:22:00,50.0,47.0,-100.00,WNW,294,5.0,-999.0,87,0.00,,,-99.99,,2013-04-25 10:22:00,
2013-04-25 03:33:00,50.0,47.0,-100.00,WNW,294,5.0,-999.0,87,0.00,,,-99.99,,2013-04-25 10:33:00,
2013-04-25 03:42:00,50.0,47.0,-100.00,WNW,294,5.0,-999.0,87,0.00,,,-99.99,,2013-04-25 10:42:00,
2013-04-25 03:53:00,50.0,47.0,-100.00,WNW,294,5.0,-999.0,87,0.00,,,-99.99,,2013-04-25 10:53:00,
2013-04-25 04:00:00,50.0,47.0,-100.00,WSW,241,2.0,-999.0,89,0.00,,,-99.99,,2013-04-25 11:00:00,
2013-04-25 04:22:00,50.0,47.0,-100.00,WSW,241,2.0,-999.0,89,0.00,,,-99.99,,2013-04-25 11:22:00,
2013-04-25 04:32:00,50.0,47.0,-100.00,WSW,241,2.0,-999.0,89,0.00,,,-99.99,,2013-04-25 11:32:00,
2013-04-25 04:42:00,50.0,47.0,-100.00,WSW,241,2.0,-999.0,89,0.00,,,-99.99,,2013-04-25 11:42:00,
2013-04-25 04:52:00,50.0,47.0,-100.00,WSW,241,2.0,-999.0,89,0.00,,,-99.99,,2013-04-25 11:52:00,
2013-04-25 05:00:00,50.0,47.0,-100.00,NNW,330,2.0,-999.0,89,0.00,,,-99.99,,2013-04-25 12:00:00,
2013-04-25 05:22:00,50.0,47.0,-100.00,NNW,330,2.0,-999.0,89,0.00,,,-99.99,,2013-04-25 12:22:00,
2013-04-25 05:32:00,50.0,47.0,-100.00,NNW,330,2.0,-999.0,89,0.00,,,-99.99,,2013-04-25 12:32:00,
2013-04-25 05:42:00,50.0,47.0,-100.00,NNW,330,2.0,-999.0,89,0.00,,,-99.99,,2013-04-25 12:42:00,
2013-04-25 05:52:00,50.0,47.0,-100.00,NNW,330,2.0,-999.0,89,0.00,,,-99.99,,2013-04-25 12:52:00,
2013-04-25 06:00:00,50.0,47.0,-100.00,WNW,289,4.0,-999.0,90,0.00,,,-99.99,,2013-04-25 13:00:00,
2013-04-25 06:21:00,50.0,47.0,-100.00,WNW,289,4.0,-999.0,90,0.00,,,-99.99,,2013-04-25 13:21:00,
2013-04-25 06:32:00,50.0,47.0,-100.00,WNW,289,4.0,-999.0,90,0.00,,,-99.99,,2013-04-25 13:32:00,
2013-04-25 06:42:00,50.0,47.0,-100.00,WNW,289,4.0,-999.0,90,0.00,,,-99.99,,2013-04-25 13:42:00,
2013-04-25 06:52:00,50.0,47.0,-100.00,WNW,289,4.0,-999.0,90,0.00,,,-99.99,,2013-04-25 13:52:00,
2013-04-25 07:00:00,50.0,47.0,-100.00,SW,232,4.0,-999.0,90,0.00,,,-99.99,,2013-04-25 14:00:00,
2013-04-25 07:22:00,50.0,47.0,-100.00,SW,232,4.0,-999.0,90,0.00,,,-99.99,,2013-04-25 14:22:00,
2013-04-25 07:32:00,50.0,47.0,-100.00,SW,232,4.0,-999.0,90,0.00,,,-99.99,,2013-04-25 14:32:00,
2013-04-25 07:42:00,50.0,47.0,-100.00,SW,232,4.0,-999.0,90,0.00,,,-99.99,,2013-04-25 14:42:00,
2013-04-25 07:52:00,50.0,47.0,-100.00,SW,232,4.0,-999.0,90,0.00,,,-99.99,,2013-04-25 14:52:00,
2013-04-25 08:00:00,50.0,46.0,-100.00,WNW,302,4.0,-999.0,88,0.00,,,-99.99,,2013-04-25 15:00:00,
2013-04-25 08:21:00,50.0,46.0,-100.00,WNW,302,4.0,-999.0,88,0.00,,,-99.99,,2013-04-25 15:21:00,
2013-04-25 08:33:00,50.0,46.0,-100.00,WNW,302,4.0,-999.0,88,0.00,,,-99.99,,2013-04-25 15:33:00,
2013-04-25 08:42:00,50.0,46.0,-100.00,WNW,302,4.0,-999.0,88,0.00,,,-99.99,,2013-04-25 15:42:00,
2013-04-25 08:53:00,50.0,46.0,-100.00,WNW,302,4.0,-999.0,88,0.00,,,-99.99,,2013-04-25 15:53:00,
2013-04-25 09:00:00,50.0,47.0,-100.00,North,2,6.0,-999.0,88,0.00,,,-99.99,,2013-04-25 16:00:00,
2013-04-25 09:24:00,50.0,47.0,-100.00,North,2,6.0,-999.0,88,0.00,,,-99.99,,2013-04-25 16:24:00,
2013-04-25 09:33:00,50.0,47.0,-100.00,North,2,6.0,-999.0,88,0.00,,,-99.99,,2013-04-25 16:33:00,
2013-04-25 09:43:00,50.0,47.0,-100.00,North,2,6.0,-999.0,88,0.00,,,-99.99,,2013-04-25 16:43:00,
2013-04-25 09:52:00,50.0,47.0,-100.00,North,2,6.0,-999.0,88,0.00,,,-99.99,,2013-04-25 16:52:00,
2013-04-25 10:00:00,51.0,47.0,-100.00,NNE,26,9.0,-999.0,85,0.00,,,-99.99,,2013-04-25 17:00:00,
2013-04-25 10:22:00,51.0,47.0,-100.00,NNE,26,9.0,-999.0,85,0.00,,,-99.99,,2013-04-25 17:22:00,
2013-04-25 10:32:00,51.0,47.0,-100.00,NNE,26,9.0,-999.0,85,0.00,,,-99.99,,2013-04-25 17:32:00,
2013-04-25 10:42:00,51.0,47.0,-100.00,NNE,26,9.0,-999.0,85,0.00,,,-99.99,,2013-04-25 17:42:00,
2013-04-25 10:53:00,51.0,47.0,-100.00,NNE,26,9.0,-999.0,85,0.00,,,-99.99,,2013-04-25 17:53:00,
2013-04-25 11:00:00,52.0,47.0,-100.00,NNW,342,6.0,-999.0,82,0.00,,,-99.99,,2013-04-25 18:00:00,
2013-04-25 11:22:00,52.0,47.0,-100.00,NNW,342,6.0,-999.0,82,0.00,,,-99.99,,2013-04-25 18:22:00,
2013-04-25 11:32:00,52.0,47.0,-100.00,NNW,342,6.0,-999.0,82,0.00,,,-99.99,,2013-04-25 18:32:00,
2013-04-25 11:43:00,52.0,47.0,-100.00,NNW,342,6.0,-999.0,82,0.00,,,-99.99,,2013-04-25 18:43:00,
2013-04-25 11:52:00,52.0,47.0,-100.00,NNW,342,6.0,-999.0,82,0.00,,,-99.99,,2013-04-25 18:52:00,
2013-04-25 12:00:00,55.0,48.0,-100.00,SW,221,5.0,-999.0,77,0.00,,,-99.99,,2013-04-25 19:00:00,
2013-04-25 12:21:00,55.0,48.0,-100.00,SW,221,5.0,-999.0,77,0.00,,,-99.99,,2013-04-25 19:21:00,
2013-04-25 12:32:00,55.0,48.0,-100.00,SW,221,5.0,-999.0,77,0.00,,,-99.99,,2013-04-25 19:32:00,
2013-04-25 12:42:00,55.0,48.0,-100.00,SW,221,5.0,-999.0,77,0.00,,,-99.99,,2013-04-25 19:42:00,
2013-04-25 12:52:00,55.0,48.0,-100.00,SW,221,5.0,-999.0,77,0.00,,,-99.99,,2013-04-25 19:52:00,
2013-04-25 13:00:00,56.0,47.0,-100.00,WSW,248,8.0,-999.0,72,0.00,,,-99.99,,2013-04-25 20:00:00,
2013-04-25 13:22:00,56.0,47.0,-100.00,WSW,248,8.0,-999.0,72,0.00,,,-99.99,,2013-04-25 20:22:00,
2013-04-25 13:32:00,56.0,47.0,-100.00,WSW,248,8.0,-999.0,72,0.00,,,-99.99,,2013-04-25 20:32:00,
2013-04-25 13:43:00,56.0,47.0,-100.00,WSW,248,8.0,-999.0,72,0.00,,,-99.99,,2013-04-25 20:43:00,
2013-04-25 13:52:00,56.0,47.0,-100.00,WSW,248,8.0,-999.0,72,0.00,,,-99.99,,2013-04-25 20:52:00,
2013-04-25 14:00:00,56.0,47.0,-100.00,SW,229,9.0,-999.0,73,0.00,,,-99.99,,2013-04-25 21:00:00,
2013-04-25 14:22:00,56.0,47.0,-100.00,SW,229,9.0,-999.0,73,0.00,,,-99.99,,2013-04-25 21:22:00,
2013-04-25 14:33:00,56.0,47.0,-100.00,SW,229,9.0,-999.0,73,0.00,,,-99.99,,2013-04-25 21:33:00,
2013-04-25 14:42:00,56.0,47.0,-100.00,SW,229,9.0,-999.0,73,0.00,,,-99.99,,2013-04-25 21:42:00,
2013-04-25 14:52:00,56.0,47.0,-100.00,SW,229,9.0,-999.0,73,0.00,,,-99.99,,2013-04-25 21:52:00,
2013-04-25 15:00:00,58.0,49.0,-100.00,SW,227,15.0,-999.0,70,0.00,,,-99.99,,2013-04-25 22:00:00,
2013-04-25 15:22:00,58.0,49.0,-100.00,SW,227,15.0,-999.0,70,0.00,,,-99.99,,2013-04-25 22:22:00,
2013-04-25 15:33:00,58.0,49.0,-100.00,SW,227,15.0,-999.0,70,0.00,,,-99.99,,2013-04-25 22:33:00,
2013-04-25 15:42:00,58.0,49.0,-100.00,SW,227,15.0,-999.0,70,0.00,,,-99.99,,2013-04-25 22:42:00,
2013-04-25 15:52:00,58.0,49.0,-100.00,SW,227,15.0,-999.0,70,0.00,,,-99.99,,2013-04-25 22:52:00,
2013-04-25 16:00:00,57.0,47.0,-100.00,SW,230,16.0,-999.0,69,0.00,,,-99.99,,2013-04-25 23:00:00,
2013-04-25 16:22:00,57.0,47.0,-100.00,SW,230,16.0,-999.0,69,0.00,,,-99.99,,2013-04-25 23:22:00,
2013-04-25 16:32:00,57.0,47.0,-100.00,SW,230,16.0,-999.0,69,0.00,,,-99.99,,2013-04-25 23:32:00,
2013-04-25 16:42:00,57.0,47.0,-100.00,SW,230,16.0,-999.0,69,0.00,,,-99.99,,2013-04-25 23:42:00,
2013-04-25 16:52:00,57.0,47.0,-100.00,SW,230,16.0,-999.0,69,0.00,,,-99.99,,2013-04-25 23:52:00,
2013-04-25 17:00:00,57.0,47.0,-100.00,SW,224,20.0,-999.0,69,0.00,,,-99.99,,2013-04-26 00:00:00,
2013-04-25 17:22:00,57.0,47.0,-100.00,SW,224,20.0,-999.0,69,0.00,,,-99.99,,2013-04-26 00:22:00,
2013-04-25 17:32:00,57.0,47.0,-100.00,SW,224,20.0,-999.0,69,0.00,,,-99.99,,2013-04-26 00:32:00,
2013-04-25 17:42:00,57.0,47.0,-100.00,SW,224,20.0,-999.0,69,0.00,,,-99.99,,2013-04-26 00:42:00,
2013-04-25 17:52:00,57.0,47.0,-100.00,SW,224,20.0,-999.0,69,0.00,,,-99.99,,2013-04-26 00:52:00,
2013-04-25 18:00:00,55.0,47.0,-100.00,SW,235,17.0,-999.0,72,0.00,,,-99.99,,2013-04-26 01:00:00,
2013-04-25 18:22:00,55.0,47.0,-100.00,SW,235,17.0,-999.0,72,0.00,,,-99.99,,2013-04-26 01:22:00,
2013-04-25 18:32:00,55.0,47.0,-100.00,SW,235,17.0,-999.0,72,0.00,,,-99.99,,2013-04-26 01:32:00,
2013-04-25 18:42:00,55.0,47.0,-100.00,SW,235,17.0,-999.0,72,0.00,,,-99.99,,2013-04-26 01:42:00,
2013-04-25 18:52:00,55.0,47.0,-100.00,SW,235,17.0,-999.0,72,0.00,,,-99.99,,2013-04-26 01:52:00,
2013-04-25 19:00:00,54.0,46.0,-100.00,SW,228,14.0,-999.0,76,0.00,,,-99.99,,2013-04-26 02:00:00,
2013-04-25 19:21:00,54.0,46.0,-100.00,SW,228,14.0,-999.0,76,0.00,,,-99.99,,2013-04-26 02:21:00,
2013-04-25 19:32:00,54.0,46.0,-100.00,SW,228,14.0,-999.0,76,0.00,,,-99.99,,2013-04-26 02:32:00,
2013-04-25 19:42:00,54.0,46.0,-100.00,SW,228,14.0,-999.0,76,0.00,,,-99.99,,2013-04-26 02:42:00,
2013-04-25 19:52:00,54.0,46.0,-100.00,SW,228,14.0,-999.0,76,0.00,,,-99.99,,2013-04-26 02:52:00,
2013-04-25 20:00:00,51.0,46.0,-100.00,WSW,248,11.0,-999.0,81,0.00,,,-99.99,,2013-04-26 03:00:00,
2013-04-25 20:22:00,51.0,46.0,-100.00,WSW,248,11.0,-999.0,81,0.00,,,-99.99,,2013-04-26 03:22:00,
2013-04-25 20:33:00,51.0,46.0,-100.00,WSW,248,11.0,-999.0,81,0.00,,,-99.99,,2013-04-26 03:33:00,
2013-04-25 20:43:00,51.0,46.0,-100.00,WSW,248,11.0,-999.0,81,0.00,,,-99.99,,2013-04-26 03:43:00,
2013-04-25 20:53:00,51.0,46.0,-100.00,WSW,248,11.0,-999.0,81,0.00,,,-99.99,,2013-04-26 03:53:00,
2013-04-25 21:00:00,50.0,46.0,-100.00,SW,219,11.0,-999.0,84,0.00,,,-99.99,,2013-04-26 04:00:00,
2013-04-25 21:23:00,50.0,46.0,-100.00,SW,219,11.0,-999.0,84,0.00,,,-99.99,,2013-04-26 04:23:00,
2013-04-25 21:32:00,50.0,46.0,-100.00,SW,219,11.0,-999.0,84,0.00,,,-99.99,,2013-04-26 04:32:00,
2013-04-25 21:43:00,50.0,46.0,-100.00,SW,219,11.0,-999.0,84,0.00,,,-99.99,,2013-04-26 04:43:00,
2013-04-25 21:53:00,50.0,46.0,-100.00,SW,219,11.0,-999.0,84,0.00,,,-99.99,,2013-04-26 04:53:00,
2013-04-25 22:00:00,50.0,46.0,-100.00,WSW,242,9.0,-999.0,85,0.00,,,-99.99,,2013-04-26 05:00:00,
2013-04-25 22:22:00,50.0,46.0,-100.00,WSW,242,9.0,-999.0,85,0.00,,,-99.99,,2013-04-26 05:22:00,
2013-04-25 22:32:00,50.0,46.0,-100.00,WSW,242,9.0,-999.0,85,0.00,,,-99.99,,2013-04-26 05:32:00,
2013-04-25 22:42:00,50.0,46.0,-100.00,WSW,242,9.0,-999.0,85,0.00,,,-99.99,,2013-04-26 05:42:00,
2013-04-25 22:52:00,50.0,46.0,-100.00,WSW,242,9.0,-999.0,85,0.00,,,-99.99,,2013-04-26 05:52:00,
2013-04-25 23:00:00,50.0,46.0,-100.00,WSW,248,11.0,-999.0,85,0.00,,,-99.99,,2013-04-26 06:00:00,
2013-04-25 23:22:00,50.0,46.0,-100.00,WSW,248,11.0,-999.0,85,0.00,,,-99.99,,2013-04-26 06:22:00,
2013-04-25 23:32:00,50.0,46.0,-100.00,WSW,248,11.0,-999.0,85,0.00,,,-99.99,,2013-04-26 06:32:00,
2013-04-25 23:42:00,50.0,46.0,-100.00,WSW,248,11.0,-999.0,85,0.00,,,-99.99,,2013-04-26 06:42:00,
2013-04-25 23:52:00,50.0,46.0,-100.00,WSW,248,11.0,-999.0,85,0.00,,,-99.99,,2013-04-26 06:52:00,